Total_Precipitation_Accumulation
0.00 0.00 0.01 0.01 0.01 0.03 0.04 0.05 0.10 0.12 0.09 0.10 0.22 0.32 0.36 0.35 0.41 0.38 0.34 0.32 0.30 0.38 0.55 0.76 1.06 1.39 1.73 2.11 2.58 2.78 2.73 2.27 1.79 1.60 1.41 1.31 1.20 1.17 1.22 1.23 1.18 1.13 1.04 1.03
0.02 0.03 0.02 0.02 0.02 0.04 0.07 0.08 0.13 0.15 0.09 0.09 0.22 0.45 0.56 0.58 0.46 0.40 0.33 0.36 0.36 0.49 0.73 1.10 1.52 1.74 1.70 1.97 2.46 2.50 2.04 1.57 1.28 1.13 1.01 0.90 0.88 0.87 0.86 0.83 0.81 0.80 0.82 0.86
0.04 0.05 0.02 0.02 0.04 0.09 0.10 0.10 0.13 0.13 0.11 0.15 0.27 0.51 0.73 0.67 0.43 0.32 0.28 0.29 0.36 0.56 0.86 1.19 1.54 1.62 1.51 1.73 1.77 1.47 1.17 0.91 0.72 0.62 0.57 0.60 0.58 0.57 0.52 0.46 0.46 0.52 0.58 0.59
0.03 0.03 0.02 0.03 0.05 0.06 0.06 0.06 0.06 0.05 0.08 0.17 0.31 0.60 0.88 0.77 0.52 0.39 0.33 0.35 0.37 0.40 0.53 0.77 0.96 1.08 1.15 1.16 1.00 0.82 0.71 0.60 0.54 0.54 0.48 0.53 0.48 0.43 0.39 0.34 0.34 0.39 0.42 0.42
0.03 0.03 0.02 0.03 0.03 0.04 0.04 0.03 0.04 0.05 0.06 0.12 0.28 0.54 0.82 0.87 0.75 0.57 0.45 0.42 0.34 0.27 0.31 0.42 0.47 0.53 0.60 0.62 0.57 0.47 0.55 0.61 0.56 0.53 0.47 0.43 0.37 0.32 0.29 0.31 0.34 0.39 0.42 0.41
0.05 0.04 0.03 0.02 0.02 0.03 0.03 0.04 0.07 0.12 0.15 0.33 0.36 0.44 0.70 0.72 0.71 0.64 0.49 0.35 0.25 0.22 0.26 0.30 0.29 0.25 0.25 0.27 0.27 0.27 0.34 0.44 0.43 0.42 0.41 0.38 0.35 0.33 0.30 0.29 0.30 0.32 0.36 0.38
0.12 0.09 0.06 0.03 0.03 0.04 0.04 0.05 0.14 0.33 0.47 0.56 0.37 0.43 0.66 0.59 0.65 0.68 0.45 0.25 0.18 0.17 0.18 0.21 0.22 0.18 0.16 0.15 0.14 0.13 0.15 0.25 0.28 0.29 0.33 0.32 0.32 0.31 0.29 0.26 0.25 0.26 0.26 0.31
0.13 0.13 0.05 0.03 0.04 0.04 0.04 0.04 0.07 0.10 0.15 0.26 0.33 0.72 0.75 0.47 0.49 0.40 0.21 0.11 0.09 0.09 0.09 0.11 0.11 0.11 0.09 0.08 0.07 0.06 0.06 0.08 0.10 0.13 0.18 0.19 0.22 0.24 0.25 0.31 0.29 0.25 0.24 0.27
0.04 0.03 0.02 0.03 0.04 0.05 0.04 0.03 0.03 0.04 0.05 0.14 0.35 0.64 0.52 0.31 0.32 0.20 0.11 0.05 0.04 0.05 0.05 0.05 0.05 0.05 0.04 0.04 0.04 0.04 0.04 0.04 0.05 0.05 0.08 0.10 0.14 0.18 0.24 0.30 0.28 0.24 0.24 0.23
0.01 0.01 0.01 0.03 0.03 0.04 0.04 0.03 0.03 0.03 0.04 0.07 0.22 0.49 0.52 0.38 0.31 0.17 0.08 0.04 0.03 0.03 0.03 0.03 0.03 0.03 0.03 0.02 0.02 0.02 0.03 0.03 0.03 0.03 0.03 0.05 0.11 0.19 0.26 0.30 0.26 0.23 0.21 0.20
0.01 0.01 0.01 0.02 0.03 0.04 0.05 0.04 0.04 0.04 0.05 0.06 0.11 0.25 0.24 0.25 0.20 0.11 0.06 0.04 0.01 0.01 0.01 0.01 0.01 0.01 0.01 0.01 0.01 0.02 0.02 0.02 0.02 0.02 0.03 0.07 0.16 0.21 0.27 0.42 0.40 0.25 0.19 0.17
0.00 0.01 0.02 0.04 0.05 0.05 0.05 0.05 0.04 0.05 0.05 0.04 0.06 0.14 0.10 0.11 0.09 0.06 0.04 0.02 0.01 0.01 0.00 0.00 0.00 0.01 0.01 0.01 0.01 0.01 0.02 0.02 0.02 0.02 0.02 0.05 0.15 0.20 0.23 0.30 0.33 0.26 0.21 0.18
0.00 0.00 0.02 0.08 0.12 0.07 0.05 0.04 0.04 0.05 0.04 0.03 0.11 0.18 0.08 0.05 0.04 0.03 0.02 0.01 0.00 0.00 0.00 0.00 0.00 0.00 0.01 0.01 0.01 0.01 0.01 0.01 0.01 0.02 0.03 0.05 0.07 0.08 0.10 0.12 0.16 0.20 0.22 0.24
0.01 0.01 0.01 0.04 0.05 0.04 0.05 0.06 0.08 0.06 0.06 0.07 0.11 0.17 0.07 0.03 0.01 0.01 0.00 0.00 0.00 0.00 0.00 0.00 0.00 0.00 0.00 0.00 0.00 0.01 0.01 0.01 0.01 0.02 0.03 0.04 0.05 0.04 0.05 0.07 0.12 0.17 0.21 0.22
0.01 0.00 0.00 0.01 0.03 0.04 0.05 0.06 0.07 0.05 0.06 0.10 0.08 0.08 0.04 0.01 0.01 0.01 0.00 0.00 0.00 0.00 0.01 0.01 0.01 0.01 0.01 0.01 0.01 0.01 0.01 0.02 0.02 0.04 0.09 0.09 0.07 0.06 0.06 0.08 0.10 0.12 0.13 0.13
0.01 0.00 0.00 0.00 0.03 0.03 0.05 0.08 0.06 0.03 0.02 0.03 0.03 0.03 0.01 0.02 0.02 0.02 0.02 0.02 0.02 0.02 0.02 0.02 0.02 0.02 0.01 0.01 0.02 0.01 0.02 0.02 0.04 0.08 0.14 0.17 0.14 0.08 0.06 0.06 0.08 0.10 0.11 0.13
0.00 0.00 0.01 0.01 0.03 0.03 0.12 0.10 0.04 0.02 0.02 0.03 0.04 0.05 0.04 0.05 0.05 0.07 0.07 0.06 0.05 0.04 0.03 0.02 0.01 0.01 0.01 0.01 0.01 0.02 0.02 0.03 0.10 0.13 0.11 0.18 0.20 0.10 0.06 0.07 0.09 0.12 0.14 0.17
0.01 0.01 0.01 0.01 0.02 0.09 0.10 0.04 0.02 0.02 0.03 0.04 0.05 0.06 0.08 0.09 0.09 0.09 0.10 0.08 0.04 0.02 0.01 0.00 0.00 0.00 0.00 0.00 0.01 0.02 0.05 0.05 0.13 0.16 0.13 0.19 0.21 0.13 0.13 0.15 0.17 0.19 0.23 0.27
0.03 0.02 0.02 0.01 0.02 0.06 0.05 0.04 0.04 0.05 0.05 0.06 0.08 0.11 0.11 0.09 0.06 0.04 0.03 0.02 0.01 0.00 0.00 0.00 0.00 0.00 0.00 0.01 0.01 0.03 0.08 0.11 0.12 0.15 0.14 0.21 0.28 0.24 0.24 0.26 0.29 0.33 0.37 0.39
0.03 0.03 0.03 0.02 0.05 0.08 0.07 0.06 0.07 0.08 0.14 0.12 0.09 0.07 0.04 0.02 0.03 0.01 0.00 0.00 0.00 0.00 0.00 0.00 0.00 0.00 0.01 0.02 0.04 0.05 0.08 0.13 0.15 0.16 0.18 0.24 0.37 0.42 0.40 0.39 0.42 0.44 0.52 0.54
0.02 0.02 0.03 0.04 0.07 0.08 0.06 0.05 0.06 0.12 0.15 0.05 0.02 0.02 0.02 0.02 0.03 0.01 0.00 0.01 0.01 0.00 0.00 0.01 0.01 0.01 0.03 0.05 0.08 0.12 0.14 0.16 0.18 0.20 0.24 0.30 0.44 0.58 0.56 0.56 0.56 0.58 0.61 0.67
0.01 0.02 0.02 0.05 0.12 0.13 0.04 0.03 0.05 0.06 0.04 0.02 0.02 0.02 0.02 0.02 0.01 0.01 0.01 0.01 0.01 0.01 0.01 0.02 0.03 0.05 0.06 0.10 0.17 0.22 0.23 0.23 0.26 0.28 0.32 0.37 0.51 0.55 0.59 0.67 0.72 0.80 0.83 0.85
0.01 0.01 0.03 0.05 0.08 0.03 0.01 0.01 0.02 0.02 0.02 0.02 0.02 0.02 0.02 0.02 0.02 0.02 0.03 0.02 0.02 0.01 0.02 0.03 0.05 0.08 0.12 0.17 0.27 0.36 0.37 0.38 0.39 0.38 0.39 0.44 0.52 0.65 0.80 0.85 0.82 0.88 0.96 1.01
0.00 0.01 0.01 0.04 0.02 0.01 0.01 0.02 0.02 0.02 0.02 0.02 0.01 0.01 0.01 0.03 0.04 0.05 0.05 0.04 0.03 0.03 0.03 0.04 0.07 0.12 0.17 0.25 0.37 0.47 0.49 0.51 0.50 0.45 0.43 0.48 0.57 0.67 0.81 0.96 0.99 1.04 1.07 1.08
0.00 0.00 0.01 0.03 0.01 0.01 0.01 0.02 0.02 0.01 0.01 0.01 0.01 0.01 0.02 0.04 0.06 0.06 0.06 0.06 0.05 0.04 0.04 0.06 0.11 0.16 0.20 0.30 0.45 0.53 0.57 0.60 0.58 0.52 0.47 0.48 0.55 0.65 0.74 0.87 0.99 1.02 1.04 0.98
0.00 0.00 0.01 0.01 0.01 0.00 0.01 0.01 0.01 0.01 0.01 0.01 0.01 0.01 0.02 0.04 0.05 0.05 0.05 0.05 0.04 0.04 0.07 0.11 0.15 0.21 0.25 0.31 0.42 0.52 0.65 0.77 0.79 0.70 0.60 0.54 0.54 0.62 0.69 0.79 0.83 0.74 0.73 0.71